Regional Weather Roundup
Issued by NWS

Home | Current Version | Previous Version | Text Only | Print | Product List | Glossary On
Versions: 1 2 3 4 5 6 7 8 9 10 11 12 13 14 15 16 17 18 19 20 21 22 23 24 25 26 27 28 29 30 31 32 33 34 35 36 37 38 39 40 41 42 43 44 45 46 47 48 49 50
000
ASUS44 KBMX 231310
RWRAL

ALABAMA REGIONAL WEATHER ROUNDUP
NATIONAL WEATHER SERVICE BIRMINGHAM AL
800 AM CDT SUN JUL 23 2017

NOTE: "FAIR" INDICATES FEW OR NO CLOUDS BELOW 12,000 FEET
WITH NO SIGNIFICANT WEATHER AND/OR OBSTRUCTIONS TO VISIBILITY.

THE REMARK "TC" DENOTES TEMPERATURE IN DEGREES CELSIUS.

ALZ001>011-014-016>018-020-231400-
NORTH ALABAMA

CITY           SKY/WX    TMP DP  RH WIND       PRES   REMARKS
MUSCLE SHOALS  SUNNY     81  73  76 SW7       29.96S
HUNTSVILLE     SUNNY     81  78  91 SW6       29.96S
DECATUR        SUNNY     81  75  82 W7        29.96S
HALEYVILLE     NOT AVBL
GADSDEN        CLOUDY    77  75  93 CALM      29.99S
$$

ALZ012-013-022-023-030>036-040>044-231400-
WEST CENTRAL ALABAMA

CITY           SKY/WX    TMP DP  RH WIND       PRES   REMARKS
TUSCALOOSA     SUNNY     78  76  93 SW5       29.98F
DEMOPOLIS        N/A     76  73  88 S3        29.99F FOG
$$

ALZ015-024>026-033>036-041>044-231400-
CENTRAL ALABAMA

CITY           SKY/WX    TMP DP  RH WIND       PRES   REMARKS
BIRMINGHAM     MOSUNNY   78  73  84 W6        30.01S
MONTGOMERY     SUNNY     80  73  79 SW5       30.00S
SHELBY CO ARPT PTSUNNY   76  74  93 SW6       30.00S
MAXWELL AFB    SUNNY     79  74  85 CALM      29.99S
GREENVILLE     FAIR      80  72  76 W5        30.01S
SELMA          FAIR      79  73  83 W6        30.00S
PRATTVILLE     FAIR      76  75  95 CALM      30.00S
BESSEMER       PTSUNNY   75  74  96 W10       30.02R
TALLADEGA      FAIR      78  74  88 CALM      30.00S
PELL CITY      SUNNY     79  77  94 SW6       29.99S
MARION         NOT AVBL
SYLACAUGA      FAIR      77  77 100 SW3       30.01S
$$

ALZ019-021-028-029-037-038-045>048-231400-
EAST CENTRAL ALABAMA

CITY           SKY/WX    TMP DP  RH WIND       PRES   REMARKS
ANNISTON       SUNNY     78  74  87 SW7       30.00R
ALEXANDER CITY SUNNY     76  73  90 SW5       30.01S
AUBURN         SUNNY     78  74  87 SW6       30.03S
$$

ALZ051>064-231400-
SOUTHWEST ALABAMA

CITY           SKY/WX    TMP DP  RH WIND       PRES   REMARKS
MOBILE         MOSUNNY   80  74  81 NW5       30.02R
BROOKLEY FIELD MOSUNNY   82  75  79 NW8       30.02R
EVERGREEN      MOSUNNY   78  74  87 CALM      30.02R
$$

ALZ049-050-065>069-231400-
SOUTHEAST ALABAMA

CITY           SKY/WX    TMP DP  RH WIND       PRES   REMARKS
DOTHAN         MOSUNNY   81  77  88 W7        30.05R
OZARK          MOSUNNY   78  76  96 CALM      30.01R
TROY           MOSUNNY   77  76  96 CALM      30.03R
EUFAULA        FAIR      81  76  84 VRB5      30.00S
$$



USA.gov is the U.S. government's official web portal to all federal, state and local government web resources and services.